Regional Weather Roundup
Issued by NWS

Home | Current Version | Previous Version | Graphics & Text | Print | Product List | Glossary On
Versions: 1 2 3 4 5 6 7 8 9 10 11 12 13 14 15 16 17 18 19 20 21 22 23 24 25 26 27 28 29 30 31 32 33 34 35 36 37 38 39 40 41 42 43 44 45 46 47 48 49 50
000
ASUS43 KLSX 240807
RWRMO

WEATHER SUMMARY FOR MISSOURI
NATIONAL WEATHER SERVICE SPRINGFIELD MO
300 AM CDT THU APR 24 2014

NOTE: "FAIR" INDICATES FEW OR NO CLOUDS BELOW 12,000 FEET WITH NO
       SIGNIFICANT WEATHER AND/OR OBSTRUCTIONS TO VISIBILITY.
       CURRENT SKY AND/OR WEATHER CONDITIONS ARE NOT AVAILABLE FOR
       CHILLICOTHE AND FARMINGTON.

MOZ001>031-035>038-043-044-053-054-240900-
...NORTHERN AND WESTERN MISSOURI...

CITY           SKY/WX    TMP DP  RH WIND       PRES   REMARKS
KANSAS CTY INT CLOUDY    68  47  46 SE33G45   29.57F
KANSAS C DTWN  LGT RAIN  69  46  43 S16G36    29.60F
LEE`S SUMMIT   CLOUDY    66  45  46 SE13G23   29.64F
ST JOSEPH      CLOUDY    68  47  46 S16       29.58F
CHILLICOTHE      N/A     59  40  49 SE9       29.70F
KIRKSVILLE     MOCLDY    52  36  54 SE12      29.78F

$$
MOZ066>068-077>081-088>096-101>105-240900-
...SOUTHWEST MISSOURI...

CITY           SKY/WX    TMP DP  RH WIND       PRES   REMARKS
SPRINGFIELD    MOCLDY    61  43  51 SE21G29   29.79F
JOPLIN         CLOUDY    67  46  47 SE20G32   29.67F

$$
MOZ032>034-039>042-045>050-055>058-069>072-240900-
...CENTRAL MISSOURI...

CITY           SKY/WX    TMP DP  RH WIND       PRES   REMARKS
COLUMBIA       MOCLDY    58  38  47 SE14      29.80F
JEFFERSON CITY MOCLDY    60  37  42 SE12      29.82F
ROLLA          PTCLDY    57  35  43 S16       29.83F
SEDALIA        MOCLDY    64  41  42 SE22G28   29.75F
WHITEMAN AFB   MOCLDY    64  37  37 S17G26    29.71F
OSAGE BEACH    MOCLDY    61  36  39 SE9G18    29.82F

$$
MOZ051-052-059>065-240900-
...EAST CENTRAL MISSOURI...

CITY           SKY/WX    TMP DP  RH WIND       PRES   REMARKS
ST LOUIS INTL  CLOUDY    57  32  38 SE12      29.90F
SPIRIT OF STL  CLOUDY    55  32  41 SE7       29.88F
ST CHARLES     CLOUDY    54  34  46 SE9       29.89F

$$
MOZ072>076-082>087-097>100-106>115-240900-
...SOUTH CENTRAL AND SOUTHEAST MISSOURI...

CITY           SKY/WX    TMP DP  RH WIND       PRES   REMARKS
CAPE GIRARDEAU MOCLDY    52  38  58 SE8       29.93S
FARMINGTON     CLOUDY    52  34  50 S7        29.92F
POPLAR BLUFF   MOCLDY    51  41  68 CALM      29.91F
WEST PLAINS    CLOUDY    55  37  50 SE7       29.89F

$$



USA.gov is the U.S. government's official web portal to all federal, state and local government web resources and services.